Location: Mactaquac Provincial Park
(45.9573°N, 66.8897°W)
Time: 10:32:09
(UTC-04:00)

Cosmos 1867 - Visible Passes

Search period start: 05 March 2015 00:00
Search period end: 15 March 2015 01:00
Orbit: 778 x 798 km, 65.0° (Epoch: 04 March)

Date Brightness Start Highest point End Pass type
(mag) Time Alt. Az. Time Alt. Az. Time Alt. Az.
05 Mar 5.3 19:32:58 10° WSW 19:37:48 31° NW 19:42:38 10° NNE visible
05 Mar 6.2 21:21:05 10° NW 21:23:13 12° NNW 21:25:16 10° N visible
06 Mar 5.0 19:00:56 10° WSW 19:06:01 38° NW 19:11:07 10° NNE visible
06 Mar 6.2 20:48:32 10° NW 20:51:14 13° NNW 20:53:50 10° N visible
06 Mar 6.4 22:36:37 10° N 22:36:54 10° N 22:36:54 10° N visible
07 Mar 6.1 20:16:03 10° WNW 20:19:16 15° NNW 20:22:23 10° NNE visible
08 Mar 6.0 20:43:39 10° WNW 20:47:21 18° NNW 20:50:56 10° NNE visible
09 Mar 6.5 00:16:06 10° NNW 00:16:16 10° N 00:16:16 10° N visible
09 Mar 5.8 20:11:19 10° W 20:15:26 21° NNW 20:19:28 10° NNE visible
09 Mar 6.3 22:00:34 10° NNW 22:01:14 10° N 22:01:51 10° N visible
09 Mar 6.3 23:44:39 10° N 23:45:35 12° N 23:45:35 12° N visible
10 Mar 6.2 21:27:50 10° NNW 21:29:12 11° N 21:30:31 10° N visible
10 Mar 6.2 23:13:14 10° N 23:14:53 12° N 23:14:53 12° N visible
11 Mar 6.1 20:55:12 10° NW 20:57:11 12° NNW 20:59:07 10° N visible
11 Mar 6.1 22:41:48 10° N 22:43:20 11° NNE 22:44:11 11° NNE visible
12 Mar 6.4 00:24:22 10° NNW 00:24:51 12° NNW 00:24:51 12° NNW visible
12 Mar 6.0 20:22:37 10° NW 20:25:12 13° NNW 20:27:41 10° N visible
12 Mar 6.1 22:10:26 10° N 22:11:19 10° N 22:12:16 10° NNE visible
12 Mar 6.2 23:52:53 10° NNW 23:54:08 15° N 23:54:08 15° N visible
13 Mar 5.9 23:21:25 10° NNW 23:23:25 16° N 23:23:25 16° N visible
14 Mar 5.8 22:49:57 10° NNW 22:52:42 16° NNE 22:52:42 16° NNE visible
15 Mar 6.4 00:32:48 10° NNW 00:33:22 13° NNW 00:33:22 13° NNW visible
